{"data":{"norad_id":58830,"epoch":"2026-09-20T14:37:17.713056Z","epoch_age_seconds":143072,"freshness":"FRESH","line1":"1 58830U 24017E   26263.60923279  .00000284  00000+0  20896-4 0  9997","line2":"2 58830  53.1582  17.2095 0000998  79.3523 280.7591 15.31705568149927","mean_motion":15.31705568,"eccentricity":9.98e-5,"inclination_deg":53.1582,"raan_deg":17.2095,"arg_perigee_deg":79.3523,"mean_anomaly_deg":280.7591,"bstar":2.0896e-5,"rev_number":14992,"period_min":94.01284620779,"perigee_km":470.03988109001,"apogee_km":471.40691362532,"semimajor_km":6848.8603973577,"source":"CELESTRAK","updated_at":"2026-09-21T09:00:33.983508Z"}}